#timestamp,LO_Frequency,Hit,StdDev 
1657026015.2,286047002.4,N
1657026035.1,286046999.8,N
1657026036.0,286046999.8,N
1657026055.8,286047002.8,N
1657026075.6,286047002.4,N
1657026095.5,286047002.6,N
1657026115.3,286047002.1,N
1657026135.2,286047002.3,N
1657026155.9,286047002.7,N
1657026175.7,286047000.1,N
1657026195.6,286047002.6,N
1657026215.4,286047002.8,N
1657026235.2,286047002.1,N
1657026255.1,286047002.4,N
1657026256.0,286047002.4,N
1657026275.8,286047000.0,N
1657026295.7,286046999.8,N
1657026315.5,286047000.1,N
1657026335.3,286047002.3,N
1657026355.2,286047002.6,N
1657026375.9,286047000.6,N
1657026395.7,286047000.3,N
1657026415.6,286047000.2,N
1657026435.4,286047000.1,N
1657026455.2,286047000.8,N
1657026475.1,286047000.9,N
1657026476.0,286047000.9,N
1657026495.8,286047001.2,N
1657026515.7,286047001.1,N
1657026535.5,286047000.4,N
1657026555.3,286047000.4,N
1657026575.2,286047000.7,N
1657026595.0,286047000.8,N
1657026595.9,286047000.8,N
1657026615.8,286046998.5,N
1657026635.6,286047000.4,N
1657026655.4,286046998.2,N
1657026675.3,286047000.4,N
1657026695.1,286047000.5,N
1657026696.0,286047000.5,N
1657026715.8,286046998.3,N
1657026735.7,286046998.5,N
1657026755.5,286047001.2,N
1657026775.4,286046998.7,N
1657026795.2,286046998.9,N
1657026815.0,286046998.4,N
1657026815.9,286046998.4,N
1657026835.8,286046998.6,N
1657026855.6,286046998.4,N
1657026875.4,286046998.3,N
1657026895.3,286046999.0,N
1657026915.1,286046999.2,N
1657026935.8,286046999.0,N
1657026955.7,286046998.2,N
1657026975.5,286046998.4,N
1657026995.4,286046998.1,N
1657027015.2,286046998.6,N
1657027035.0,286046998.4,N
1657027035.9,286046998.4,N
1657027055.8,286046998.5,N
1657027075.6,286046998.1,N
1657027095.5,286046998.5,N
1657027115.3,286046998.7,N
1657027135.1,286046998.7,N
1657027155.9,286046998.9,N
1657027175.7,286046999.2,N
1657027195.5,286047001.2,N
1657027215.4,286046998.1,N
1657027235.2,286046998.4,N
1657027255.1,286046998.6,N
1657027256.0,286046998.6,N
1657027275.8,286046998.2,N
1657027295.6,286046998.8,N
1657027315.5,286046998.9,N
1657027335.3,286046999.2,N
1657027355.1,286046999.2,N
1657027375.9,286046999.4,N
1657027395.7,286046999.4,N
1657027415.6,286046998.8,N
1657027435.4,286046998.8,N
1657027455.2,286046999.0,N
1657027475.1,286046999.0,N
1657027476.0,286046999.0,N
1657027495.8,286046998.9,N
1657027515.6,286046999.2,N
1657027535.5,286046999.4,N
1657027555.3,286046999.0,N
1657027575.2,286046996.9,Y
1657027595.9,286046998.6,P
1657027615.7,286047000.9,P
1657027635.6,286047001.2,N
1657027655.4,286046998.8,N
1657027675.2,286046998.7,N
1657027695.1,286046998.3,N
1657027696.0,286046998.3,N
1657027715.8,286047000.8,N
1657027735.7,286047001.2,N
1657027755.5,286046998.9,N
1657027775.3,286046998.3,N
1657027795.2,286046998.5,N
1657027815.0,286046998.3,N
1657027815.9,286046998.3,N
1657027835.8,286046998.2,N
1657027855.6,286046998.6,N
1657027875.4,286046999.0,N
1657027895.3,286046999.3,N
1657027915.1,286046998.7,N
1657027935.8,286046999.3,N
1657027955.7,286046998.8,N
1657027975.5,286046998.8,N
1657027995.4,286046998.7,N
1657028015.2,286046998.8,N
1657028035.0,286046998.2,N
1657028035.9,286046998.2,N
1657028055.8,286046998.6,N
1657028075.6,286047001.1,N
1657028095.4,286047000.8,N
1657028115.3,286047000.6,N
1657028135.1,286047000.4,N
1657028155.9,286047001.0,N
1657028175.7,286047000.0,N
1657028195.5,286047000.1,N
1657028215.4,286047002.7,N
1657028235.2,286047002.8,N
1657028255.0,286046999.8,N
1657028255.9,286046999.8,N
1657028275.8,286047000.2,N
1657028295.6,286047002.4,N
1657028315.5,286047000.6,N
1657028335.3,286047000.6,N
1657028355.1,286047000.7,N
1657028375.9,286047000.4,N
1657028395.7,286047000.7,N
1657028415.5,286047001.2,N
1657028435.4,286047001.0,N
1657028455.2,286047000.9,N
1657028475.1,286047000.8,N
1657028476.0,286047000.8,N
1657028495.8,286046998.4,N
1657028515.6,286047001.1,N
1657028535.5,286047000.7,N
1657028555.3,286046999.9,N
1657028575.1,286047000.5,N
1657028595.9,286046999.8,N
1657028615.7,286047000.7,N
1657028635.6,286047000.4,N
1657028655.4,286046999.9,N
1657028675.2,286047000.4,N
1657028695.1,286047000.4,N
1657028696.0,286047000.4,N
1657028715.8,286047000.1,N
1657028735.6,286047000.9,N
1657028755.5,286047000.6,N
1657028775.3,286047000.4,N
1657028795.1,286047000.0,N
1657028845.9,286047000.1,E
1657028855.8,286047002.3,N
1657028875.7,286047002.7,P
1657028895.5,286047000.2,N
1657028915.3,286046999.7,N
1657028935.2,286047002.3,N
1657028955.0,286047002.3,N
1657028955.9,286047002.3,N
1657028975.8,286047002.4,N
1657028995.6,286047002.4,N
1657029015.4,286047002.8,N
1657029035.3,286047000.1,N
1657029055.1,286046999.8,N
1657029075.8,286046999.8,N
1657029095.7,286047002.6,N
1657029115.5,286047002.5,N
1657029135.3,286047002.8,N
1657029155.2,286047002.4,N
1657029175.0,286047002.6,N
1657029175.9,286047002.6,N
1657029195.8,286047001.6,N
1657029215.6,286047002.5,N
1657029235.4,286047001.9,N
1657029255.3,286047002.3,N
1657029275.1,286047002.4,N
1657029295.8,286047002.7,N
1657029315.7,286047000.4,N
1657029335.5,286047000.2,N
1657029355.4,286047000.3,N
1657029375.2,286047000.9,N
1657029395.0,286047000.2,N
1657029395.9,286047000.2,N
1657029415.8,286047002.2,N
1657029435.6,286047002.4,N
1657029455.5,286046999.8,N
1657029475.3,286047000.4,N
1657029495.1,286046999.9,N
1657029515.9,286047000.8,N
1657029535.7,286046999.2,N
1657029555.6,286046998.8,N
1657029575.4,286047001.2,N
1657029595.2,286046998.3,N
